Theta_e
342 342 347 348 351 350 349 351 351 351 351 351 351 352 351 351 352 347 348 353 353 353 353 353 353 353 353 352 353 352 353 353 353 352 352 352 352 352 348 348 347 349 349
338 340 348 349 347 349 351 350 350 350 351 350 351 352 352 352 352 349 348 347 352 351 353 354 353 354 353 353 353 353 350 352 353 353 353 353 352 346 346 350 349 348 350
338 339 348 347 350 350 347 345 351 350 350 351 351 351 353 352 352 349 350 347 351 352 353 353 353 353 353 353 354 354 353 353 352 352 349 348 347 353 348 350 351 351 351
337 340 346 347 351 349 348 349 347 346 350 350 351 350 351 353 352 352 347 352 352 352 352 352 353 353 353 353 353 353 353 353 351 349 346 348 350 352 351 349 347 347 347
339 343 346 348 351 351 352 349 350 346 350 348 350 351 349 352 353 352 352 351 352 352 352 352 352 352 353 353 351 353 351 347 348 347 347 347 347 351 351 348 346 346 350
342 343 345 350 352 353 351 352 348 346 348 351 348 351 350 352 353 352 352 351 352 352 352 352 351 352 352 352 351 351 350 346 346 347 345 345 346 346 351 350 351 346 346
343 344 347 349 350 350 352 349 351 349 344 347 349 350 351 352 353 352 353 349 350 352 351 350 350 350 349 349 351 350 344 347 344 345 344 345 349 350 350 342 346 348 349
343 344 347 348 351 349 349 351 349 347 348 346 351 349 351 352 353 352 352 350 349 350 351 352 351 347 349 349 347 348 345 343 342 342 342 344 348 351 349 348 349 348 347
343 345 345 346 350 349 351 352 349 348 348 346 346 347 351 352 350 353 352 352 349 352 352 351 347 345 344 343 343 347 342 342 346 346 342 343 348 351 350 347 348 347 347
342 345 345 346 344 344 349 347 348 350 349 348 350 349 350 351 352 352 351 351 349 353 352 351 347 343 342 344 344 343 341 338 342 347 347 347 340 346 340 341 340 333 339
342 343 343 345 345 343 345 343 341 343 347 346 349 350 345 347 349 349 349 351 349 352 351 351 347 344 342 342 344 344 347 343 342 345 346 345 346 349 350 347 346 346 343
345 344 343 341 342 343 343 344 343 346 349 350 349 350 350 349 348 349 350 349 348 351 351 348 344 343 345 345 344 347 345 344 344 344 346 342 344 348 346 346 345 348 344
343 343 343 342 342 342 342 343 342 341 349 350 351 347 348 351 349 348 350 346 346 347 347 345 345 344 345 344 346 345 346 346 345 345 346 338 344 347 350 347 347 345 345
342 342 342 343 343 342 344 343 343 343 347 349 351 348 348 347 348 346 346 346 345 342 344 344 344 345 347 346 346 347 347 347 346 346 349 344 339 343 347 348 345 343 344
341 341 342 343 345 344 347 346 346 344 346 349 351 351 348 346 346 345 345 345 345 344 344 344 343 345 347 346 346 346 346 348 348 347 347 348 342 338 345 351 346 345 344
342 340 340 341 343 344 347 348 347 348 349 349 350 352 352 351 347 347 346 345 345 344 344 344 345 345 344 344 345 347 346 347 349 350 347 351 345 337 339 346 345 344 349
345 344 339 339 340 344 346 348 348 350 349 351 352 353 353 353 353 351 347 346 345 345 346 346 346 345 343 342 343 344 346 347 347 349 350 349 350 344 338 338 341 341 346
344 344 342 338 341 344 346 347 348 349 350 351 352 353 354 355 354 353 351 349 349 348 347 345 345 344 343 342 343 345 346 346 346 348 348 350 349 350 348 339 336 337 343
346 345 343 341 341 344 346 347 347 348 349 350 353 354 355 355 355 354 352 350 351 348 347 347 348 346 345 346 345 347 347 348 349 349 350 345 348 346 347 343 341 342 339
347 348 345 342 342 344 345 348 347 348 349 352 353 354 356 355 355 355 354 353 352 350 350 350 349 350 350 345 346 347 349 346 341 345 347 347 346 346 343 342 341 341 342
347 348 347 345 345 347 347 347 347 347 349 353 354 353 353 355 356 355 354 354 353 352 352 349 350 350 351 351 348 349 344 348 347 349 350 351 350 350 349 346 344 341 343
347 348 349 347 348 348 346 347 347 347 348 353 352 353 354 356 356 355 354 354 355 353 352 352 352 352 351 351 349 345 356 350 351 350 350 351 351 352 350 350 348 349 348
346 347 349 349 347 349 346 349 351 351 353 353 353 354 350 351 353 354 354 354 355 352 352 354 353 352 353 353 347 352 357 355 352 351 352 351 351 351 350 351 351 351 350
345 346 347 349 349 350 349 348 351 351 350 351 353 353 355 358 354 353 353 349 353 352 347 351 351 353 354 352 351 352 353 353 354 354 351 351 353 353 351 350 350 350 350
345 345 347 348 348 349 350 348 351 352 350 352 352 356 353 358 354 353 354 348 348 352 351 348 354 353 353 351 351 354 353 353 354 355 354 350 349 352 352 352 351 350 350
344 345 346 347 349 350 351 351 351 352 352 352 352 354 353 355 354 350 355 351 353 355 349 346 354 353 352 352 352 353 352 352 352 352 353 352 351 351 351 353 352 352 352
Wind_Speed
14 14 12 11 11 12 14 14 15 14 14 13 13 13 13 13 13 13 13 15 16 16 18 21 21 22 23 23 23 23 22 22 21 22 22 22 21 21 21 22 22 22 22
19 16 13 10 10 12 13 14 14 13 13 13 13 13 13 13 13 13 12 14 17 17 18 20 21 21 23 22 22 21 21 21 21 21 21 21 20 20 20 20 21 22 20
19 17 13 14 12 12 12 13 14 13 13 12 12 12 13 13 14 14 13 15 17 18 19 19 20 20 20 20 20 20 20 20 20 17 17 18 18 18 18 18 17 20 18
17 16 14 14 13 13 11 12 12 13 13 12 12 11 12 13 13 13 15 15 15 19 17 18 18 19 18 19 18 18 18 18 18 16 16 17 16 16 16 16 15 17 17
16 15 14 13 13 12 12 12 11 11 12 11 12 11 11 12 13 13 14 15 15 17 17 16 17 17 17 16 15 15 16 17 18 14 14 14 15 14 15 15 15 17 14
17 16 15 13 12 12 11 10 10 11 11 11 12 12 12 12 13 13 14 14 15 15 15 16 16 15 17 16 14 14 13 16 11 12 13 12 13 13 12 14 12 14 12
17 16 15 13 12 11 11 9 9 10 9 9 10 12 13 13 13 13 14 14 14 14 15 14 14 13 11 10 11 11 11 12 10 10 9 11 11 12 10 11 9 11 10
17 16 15 12 13 11 10 9 8 8 7 10 9 12 14 14 13 13 15 15 15 14 14 14 12 11 9 7 7 8 9 10 9 9 9 11 11 9 9 9 9 8 8
16 15 15 13 10 10 9 9 7 7 7 7 9 15 15 14 14 13 13 14 15 14 14 12 12 12 11 11 11 9 8 11 9 9 9 9 9 9 8 7 7 6 6
16 15 14 13 11 10 8 7 6 6 7 7 12 16 15 15 13 12 14 14 14 14 13 11 11 12 11 11 10 9 10 11 9 8 8 7 8 5 5 5 6 5 6
16 15 14 13 12 9 9 7 6 5 6 8 13 12 15 14 13 13 12 14 13 13 13 11 10 11 12 10 9 8 8 7 7 7 7 5 7 6 5 5 5 6 6
17 16 14 13 12 10 8 7 6 5 6 6 8 9 8 11 12 11 13 13 13 12 11 10 9 9 6 7 7 7 5 6 6 5 5 4 6 5 5 5 5 5 5
19 17 15 13 12 11 8 8 7 6 6 6 8 8 9 9 12 12 12 11 10 11 10 8 6 5 5 4 5 5 5 5 5 5 3 4 6 6 5 3 4 4 5
18 16 15 14 13 11 9 9 8 7 6 6 8 9 10 10 10 10 10 11 10 10 9 9 7 4 4 4 4 4 4 3 3 1 5 2 5 5 5 4 4 5 4
17 17 15 14 13 12 11 9 8 7 7 7 7 9 10 10 11 12 11 11 10 10 10 9 7 7 5 5 4 3 3 2 1 0 1 4 5 6 6 5 3 5 6
18 18 17 16 14 13 12 10 8 8 8 7 7 8 10 11 12 13 13 13 12 11 10 9 8 7 7 7 6 6 5 4 3 3 2 3 5 7 7 7 7 8 7
19 17 17 17 17 15 13 12 10 9 9 8 8 9 10 10 10 12 12 13 13 12 11 10 9 8 8 8 8 7 8 8 7 6 5 4 5 8 9 8 7 8 8
18 18 19 18 18 17 14 13 11 10 9 8 8 9 11 9 9 11 12 12 11 12 12 11 11 11 11 11 10 9 9 9 9 9 8 7 6 6 7 10 10 10 9
19 18 19 20 19 18 15 13 11 9 10 9 9 9 11 12 11 10 11 11 11 11 12 12 12 12 11 11 10 11 11 10 9 9 11 10 10 10 13 16 14 13 12
21 19 19 21 19 18 14 13 12 11 10 9 10 10 12 11 12 11 8 8 11 11 11 10 11 10 10 10 10 10 10 14 15 16 16 15 15 13 15 18 18 17 16
22 22 22 21 21 18 17 15 15 14 12 10 10 8 10 11 12 11 9 11 12 11 10 9 9 10 11 8 6 7 12 13 14 14 13 14 14 14 16 17 17 22 19
24 23 23 23 22 21 17 15 14 13 12 9 8 9 10 12 11 10 10 9 11 9 9 9 10 8 8 7 3 6 2 2 6 5 7 9 10 12 14 15 16 16 17
25 25 24 24 22 21 19 15 11 10 9 9 11 11 13 12 10 10 10 9 9 9 8 7 8 9 7 5 6 6 0 1 2 2 2 3 5 8 9 10 12 14 15
28 26 24 24 23 22 21 17 16 14 14 13 12 9 7 7 8 10 10 9 9 10 9 7 8 6 6 4 2 5 3 3 1 1 3 2 1 4 6 7 9 11 12
29 26 25 24 24 24 23 20 18 15 12 9 10 6 9 8 9 12 9 9 10 9 9 10 6 6 7 6 6 2 3 2 2 2 2 5 5 1 2 5 7 8 9
29 27 25 25 25 25 25 23 20 17 14 11 10 9 8 9 9 12 10 10 8 8 11 7 8 9 9 7 7 6 5 2 3 2 4 5 2 2 3 3 5 6 7
Wind_Direction
147 141 135 125 122 118 118 121 122 128 125 121 117 116 113 109 97 101 103 110 110 110 107 107 103 102 101 102 104 107 103 104 100 98 100 101 98 97 99 100 105 106 105
141 140 138 133 128 122 128 128 130 131 128 126 120 117 113 112 102 101 98 107 108 109 107 106 106 103 102 103 104 104 106 108 106 105 103 98 99 105 104 98 104 110 107
139 139 135 129 124 124 127 134 133 134 135 135 132 125 117 111 107 102 102 103 108 106 108 110 105 103 105 104 106 109 109 109 108 108 104 100 101 97 99 97 97 101 102
140 138 136 131 126 122 120 123 129 136 140 142 139 138 126 115 112 109 105 103 105 105 104 103 102 99 100 105 107 108 108 109 104 99 103 102 103 102 99 101 105 105 110
139 137 138 132 125 119 115 119 129 133 138 142 143 144 139 126 118 117 111 105 105 105 110 106 101 100 100 97 104 108 107 105 96 100 103 105 106 109 103 99 101 98 113
142 136 140 137 131 124 116 110 107 140 143 143 148 149 146 136 127 122 117 112 107 111 109 105 105 98 103 93 97 105 104 97 99 100 102 105 105 115 116 116 112 118 119
145 139 142 143 138 132 121 118 111 105 141 141 148 153 152 142 133 128 123 121 121 116 113 111 109 107 113 105 103 106 114 103 106 106 113 107 117 110 111 111 120 118 118
148 146 146 152 143 137 132 125 119 109 100 151 153 158 152 145 136 133 130 128 127 124 121 115 109 103 101 99 115 119 101 106 102 113 103 112 112 114 106 119 112 112 117
152 148 150 150 144 139 136 128 121 114 111 137 132 153 149 143 141 139 133 134 133 132 124 116 106 107 99 101 102 108 100 109 108 110 115 112 121 118 124 122 121 126 125
158 156 157 153 154 150 138 136 130 131 133 112 126 136 140 140 139 137 141 136 137 135 126 115 107 103 104 108 110 109 105 106 116 106 107 124 139 138 129 139 130 128 135
166 167 166 165 159 156 152 158 134 125 114 114 121 131 137 146 144 143 147 135 141 141 135 129 124 119 108 102 105 101 111 102 110 106 115 143 126 126 132 145 153 148 140
173 175 173 172 162 161 161 154 154 151 146 137 128 140 143 145 155 150 145 139 145 150 146 145 142 120 114 118 97 84 119 112 110 110 114 148 143 144 152 167 162 153 165
176 176 180 175 172 169 169 169 169 171 155 142 149 150 150 150 151 158 149 146 149 162 167 161 159 167 131 126 116 99 115 139 119 114 152 162 162 167 185 196 188 184 190
181 181 185 179 180 182 175 180 173 172 173 164 155 165 164 168 165 169 173 166 168 173 176 186 185 173 171 156 153 126 130 133 130 122 149 193 174 183 197 213 220 218 228
181 183 187 187 188 187 185 180 175 176 180 176 172 179 174 181 180 179 177 183 183 179 186 193 195 198 203 207 202 199 195 164 159 282 359 252 201 197 203 211 224 232 236
188 183 183 192 192 192 190 189 187 186 189 183 185 191 193 188 183 185 186 188 192 192 192 198 201 208 217 224 228 235 235 243 262 273 279 238 227 207 203 209 227 242 236
189 185 188 190 193 194 193 193 193 192 194 194 193 197 202 203 189 193 191 194 198 199 201 205 211 219 227 233 240 243 247 247 252 253 255 250 241 231 217 215 220 253 250
189 186 192 192 192 193 193 196 198 200 201 207 210 211 209 208 203 200 196 201 199 202 206 212 217 223 230 236 240 243 245 249 249 250 250 239 245 242 240 226 223 234 248
190 187 191 192 192 193 197 201 206 208 217 218 213 210 206 205 203 203 200 194 194 201 210 213 217 225 230 239 245 244 246 249 254 249 234 237 226 223 225 216 227 241 237
191 190 192 192 195 197 200 207 214 221 224 221 214 214 202 199 202 207 204 194 198 205 204 211 216 223 229 232 243 250 251 254 248 255 251 246 245 236 234 235 243 237 233
194 194 195 195 195 195 202 209 216 218 217 217 221 221 209 197 200 202 203 196 201 217 222 220 226 229 234 234 234 253 277 250 248 249 248 246 243 240 238 237 238 236 244
196 198 200 203 201 203 204 210 215 215 218 216 222 221 215 211 205 204 206 200 203 212 214 226 232 244 235 226 208 255 246 191 247 228 232 240 241 240 235 236 240 241 238
200 200 199 201 202 203 206 202 200 205 209 213 214 218 221 220 207 212 213 208 202 214 219 216 220 228 234 218 219 251 123 120 202 195 165 203 228 236 242 235 240 240 241
202 202 201 200 199 202 202 203 198 202 206 211 213 207 219 226 210 207 218 214 207 209 221 224 225 233 231 212 244 225 280 3 28 49 191 102 228 236 239 236 236 238 239
199 199 200 199 198 201 200 205 202 211 208 205 217 207 220 220 215 207 210 215 214 201 212 212 214 217 230 215 225 212 252 223 296 283 346 8 47 125 257 240 236 234 233
199 200 199 198 197 199 200 200 206 205 210 199 202 214 234 222 221 223 219 210 214 206 214 229 227 226 233 228 236 224 221 271 253 281 328 278 11 43 327 256 242 244 240